Regional Weather Roundup
Issued by NWS

Home | Current Version | Previous Version | Graphics & Text | Print | Product List | Glossary On
Versions: 1 2 3 4 5 6 7 8 9 10 11 12 13 14 15 16 17 18 19 20 21 22 23 24 25 26 27 28 29 30 31 32 33 34 35 36 37 38 39 40 41 42 43 44 45 46 47 48 49 50
000
ASUS43 KOAX 262102
RWRNE

WEATHER ROUNDUP FOR NEBRASKA
NATIONAL WEATHER SERVICE OMAHA NE
400 PM CDT THU MAR 26 2015

NOTES: SATELLITE DATA IS BEING USED TO AUGMENT CLOUD COVER ABOVE
       12000 FEET.
       "FAIR" INDICATES FEW OR NO CLOUDS BELOW 12,000 FEET WITH NO
       SIGNIFICANT WEATHER AND/OR OBSTRUCTIONS TO VISIBILITY.

  * THESE STATIONS DO NOT REPORT WEATHER SUCH AS RAIN...SNOW OR FOG.

NEZ001>004-019>022-054>056-262200-
NEBRASKA PANHANDLE

CITY           SKY/WX    TMP DP  RH WIND       PRES   REMARKS
SCOTTSBLUFF    CLOUDY    53  31  42 NW25G33   30.11F
ALLIANCE       CLOUDY    52  29  41 NW28G37   30.07F
CHADRON        CLOUDY    52  28  39 N13G20    30.08F
KIMBALL        CLOUDY    53  24  31 N20G26    30.10F
SIDNEY         CLOUDY    55  28  35 N31G38    30.10F
$$

NEZ057>060-069>072-079>082-262200-
SOUTHWEST NEBRASKA

CITY           SKY/WX    TMP DP  RH WIND       PRES   REMARKS
NORTH PLATTE   CLOUDY    58  27  30 NW24G33   30.03S
IMPERIAL         N/A     57  28  33 NW24G35   30.06F
LEXINGTON      CLOUDY    59  26  27 N26G32    29.99F
MCCOOK         CLOUDY    61  25  25 NW25G32   30.02F
OGALLALA       CLOUDY    58  28  31 NW28G36   30.06F
$$

NEZ005>010-023>029-035>040-094-262200-
NORTH CENTRAL NEBRASKA

CITY           SKY/WX    TMP DP  RH WIND       PRES   REMARKS
VALENTINE      CLOUDY    39  30  70 NE15      30.12R WCI  31
AINSWORTH      PTSUNNY   43  32  65 NE23      30.09R
BROKEN BOW     LGT RAIN  55  34  45 N15       30.00S
O`NEILL        LGT SNOW  33  33  99 NE12      30.13R VSB 1   WCI  24
ORD            CLOUDY    49  25  39 VRB6      30.02F
$$

NEZ041-046>049-061>064-073>077-083>087-262200-
SOUTH CENTRAL NEBRASKA

CITY           SKY/WX    TMP DP  RH WIND       PRES   REMARKS
GRAND ISLAND   CLOUDY    49  29  46 VRB5      30.06F
AURORA         LGT RAIN  46  30  54 W5        30.07S
HASTINGS       PTSUNNY   53  28  38 SW6G20    30.03F
HEBRON         CLOUDY    53  27  37 S9G16     30.05F
HOLDREGE       CLOUDY    57  27  31 W15       29.99F
KEARNEY *      CLOUDY    55  28  35 W9        29.99F
YORK           CLOUDY    46  28  49 CALM      30.07S
$$

NEZ011>018-030>034-042>045-262200-
NORTHEAST NEBRASKA

CITY           SKY/WX    TMP DP  RH WIND       PRES   REMARKS
NORFOLK        LGT SNOW  33  32  96 N7        30.13S VSB 3/4 WCI  27
ALBION         LGT RAIN  36  32  87 E10       30.10S WCI  28
BLAIR          PTSUNNY   46  22  38 N10       30.09F
COLUMBUS *     CLOUDY    37  28  70 NE8       30.13S WCI  31
FREMONT        CLOUDY    45  24  43 NW18      30.11S
TEKAMAH        CLOUDY    45  23  42 N12       30.12F
WAYNE          CLOUDY    41  23  49 NW13      30.14R
$$

NEZ050>053-065>068-078-088>093-262200-
SOUTHEAST NEBRASKA

CITY           SKY/WX    TMP DP  RH WIND       PRES   REMARKS
LINCOLN        CLOUDY    50  25  37 VRB3      30.09F
OMAHA EPPLEY   CLOUDY    48  23  37 N12       30.09F
BEATRICE       CLOUDY    47  26  43 NE5       30.08F
FALLS CITY     MOSUNNY   49  26  41 VRB5      30.10F
NEBRASKA CITY  SUNNY     48  21  35 W3        30.09F
PLATTSMOUTH    MOSUNNY   48  18  30 NW7       30.09F
$$

NEZ044-045-051>053-067-262200-
OMAHA AREA

CITY           SKY/WX    TMP DP  RH WIND       PRES   REMARKS
OMAHA EPPLEY   CLOUDY    48  23  37 N12       30.09F
BLAIR          PTSUNNY   46  22  38 N10       30.09F
FREMONT        CLOUDY    45  24  43 NW18      30.11S
MILLARD        CLOUDY    48  24  37 N8        30.09F
OFFUTT AFB     PTSUNNY   49  22  34 VRB6      30.08F
PLATTSMOUTH    MOSUNNY   48  18  30 NW7       30.09F
WAHOO          CLOUDY    45  25  45 N10G21    30.11R
$$


USA.gov is the U.S. government's official web portal to all federal, state and local government web resources and services.